WTL503 TNCA-MUHA

Flight info

Callsign WTL503
Flight time N/A
Altitude 32000
Route AMBIN1F AMBIN UL332 MLY/N0452F330 UG633 SIA/N0446F320 UL332 UCL
Aircraft B739/M-SDE2E3FGHIRWXY/LB1

Departure

Time 2026-05-03 20:16
Airport Queen Beatrix International Airport (TNCA)

Arrival

Time N/A
Airport José Martí International Airport (MUHA)
Time Latitude Longitude Altitude Speed Heading
2026-05-03 20:15 12.50389 -70.02580 23 ft 12 kts 103°
2026-05-03 20:15 12.50335 -70.02349 27 ft 66 kts 103°
2026-05-03 20:15 12.50174 -70.01669 42 ft 127 kts 103°
2026-05-03 20:15 12.49948 -70.00661 325 ft 151 kts 102°
2026-05-03 20:16 12.49711 -69.99561 941 ft 166 kts 101°
2026-05-03 20:16 12.49430 -69.98341 1504 ft 185 kts 102°
2026-05-03 20:16 12.49123 -69.97034 2103 ft 196 kts 101°
2026-05-03 20:16 12.48792 -69.95628 2602 ft 209 kts 103°
2026-05-03 20:17 12.48651 -69.94114 3054 ft 222 kts 82°
2026-05-03 20:17 12.49380 -69.92607 3316 ft 252 kts 48°
2026-05-03 20:17 12.50873 -69.91649 4042 ft 265 kts 25°
2026-05-03 20:17 12.52660 -69.91062 4727 ft 274 kts 18°
2026-05-03 20:18 12.54531 -69.90585 5466 ft 276 kts 16°
2026-05-03 20:18 12.56407 -69.90127 6255 ft 278 kts 15°
2026-05-03 20:18 12.58296 -69.89658 6954 ft 281 kts 15°
2026-05-03 20:18 12.60203 -69.89173 7636 ft 283 kts 16°
2026-05-03 20:19 12.62125 -69.88675 8312 ft 287 kts 17°
2026-05-03 20:19 12.64068 -69.88164 8973 ft 291 kts 18°
2026-05-03 20:19 12.66035 -69.87642 9682 ft 292 kts 18°
2026-05-03 20:19 12.68020 -69.87111 10254 ft 299 kts 18°
2026-05-03 20:20 12.70108 -69.86548 10415 ft 320 kts 18°
2026-05-03 20:20 12.72330 -69.85946 10561 ft 340 kts 18°
2026-05-03 20:20 12.74670 -69.85312 10824 ft 353 kts 18°
2026-05-03 20:20 12.77076 -69.84664 11261 ft 359 kts 17°
2026-05-03 20:21 12.79503 -69.84011 11845 ft 361 kts 17°
2026-05-03 20:21 12.81912 -69.83361 12370 ft 365 kts 18°
2026-05-03 20:21 12.84382 -69.82693 12897 ft 368 kts 18°
2026-05-03 20:21 12.86867 -69.82021 13446 ft 371 kts 18°
2026-05-03 20:22 12.89378 -69.81342 13943 ft 374 kts 17°
2026-05-03 20:22 12.91910 -69.80673 14376 ft 379 kts 14°
2026-05-03 20:22 12.94574 -69.80596 14811 ft 388 kts 352°
2026-05-03 20:22 12.97124 -69.81520 15289 ft 395 kts 330°
2026-05-03 20:23 12.99247 -69.83332 15654 ft 403 kts 309°
2026-05-03 20:23 13.00887 -69.85681 16134 ft 404 kts 304°
2026-05-03 20:23 13.02454 -69.88076 16638 ft 406 kts 303°
2026-05-03 20:23 13.03998 -69.90473 17043 ft 410 kts 303°
2026-05-03 20:24 13.05580 -69.92928 17483 ft 412 kts 303°
2026-05-03 20:24 13.07173 -69.95387 17929 ft 415 kts 303°
2026-05-03 20:24 13.08784 -69.97855 18343 ft 417 kts 303°
2026-05-03 20:24 13.10405 -70.00324 18801 ft 417 kts 303°
2026-05-03 20:25 13.12037 -70.02803 19158 ft 420 kts 303°
2026-05-03 20:25 13.13679 -70.05292 19580 ft 419 kts 303°
2026-05-03 20:25 13.15310 -70.07761 20083 ft 417 kts 303°
2026-05-03 20:25 13.16922 -70.10201 20474 ft 418 kts 303°
2026-05-03 20:26 13.18557 -70.12676 20854 ft 420 kts 303°
2026-05-03 20:26 13.20199 -70.15163 21275 ft 419 kts 303°
2026-05-03 20:26 13.21834 -70.17642 21689 ft 419 kts 303°
2026-05-03 20:26 13.23470 -70.20122 22076 ft 420 kts 303°
2026-05-03 20:27 13.25110 -70.22609 22449 ft 421 kts 303°
2026-05-03 20:27 13.26751 -70.25097 22815 ft 421 kts 303°
2026-05-03 20:27 13.28397 -70.27594 23180 ft 422 kts 303°
2026-05-03 20:27 13.30048 -70.30100 23480 ft 424 kts 303°
2026-05-03 20:28 13.31700 -70.32607 23782 ft 424 kts 303°
2026-05-03 20:28 13.33359 -70.35127 24036 ft 425 kts 303°
2026-05-03 20:28 13.35014 -70.37641 24369 ft 424 kts 303°
2026-05-03 20:28 13.36675 -70.40164 24573 ft 427 kts 303°
2026-05-03 20:29 13.38345 -70.42703 24839 ft 427 kts 303°
2026-05-03 20:29 13.39980 -70.45189 25143 ft 427 kts 303°
2026-05-03 20:29 13.41649 -70.47727 25321 ft 430 kts 303°
2026-05-03 20:29 13.43327 -70.50280 25527 ft 431 kts 303°
2026-05-03 20:30 13.45004 -70.52829 25844 ft 431 kts 303°
2026-05-03 20:30 13.46704 -70.55417 26038 ft 433 kts 303°
2026-05-03 20:30 13.48398 -70.57995 26231 ft 435 kts 303°
2026-05-03 20:30 13.50093 -70.60578 26450 ft 436 kts 303°
2026-05-03 20:31 13.51791 -70.63164 26709 ft 436 kts 303°
2026-05-03 20:31 13.53474 -70.65729 26896 ft 438 kts 303°
2026-05-03 20:31 13.55187 -70.68341 27053 ft 441 kts 302°
2026-05-03 20:31 13.56905 -70.70960 27314 ft 440 kts 302°
2026-05-03 20:32 13.58043 -70.72695 27463 ft 441 kts 302°
2026-05-03 20:32 13.59761 -70.75316 27644 ft 443 kts 302°
2026-05-03 20:32 13.62049 -70.78807 27925 ft 444 kts 302°
2026-05-03 20:32 13.63777 -70.81445 28094 ft 446 kts 302°
2026-05-03 20:33 13.64950 -70.83237 28216 ft 447 kts 302°
2026-05-03 20:33 13.66672 -70.85867 28403 ft 448 kts 302°
2026-05-03 20:33 13.68418 -70.88534 28598 ft 449 kts 302°
2026-05-03 20:33 13.70169 -70.91209 28781 ft 450 kts 302°
2026-05-03 20:34 13.71921 -70.93888 28951 ft 452 kts 302°
2026-05-03 20:34 13.73682 -70.96581 29124 ft 453 kts 302°
2026-05-03 20:34 13.75443 -70.99275 29335 ft 453 kts 302°
2026-05-03 20:34 13.77183 -71.01937 29588 ft 453 kts 302°
2026-05-03 20:35 13.78937 -71.04622 29866 ft 452 kts 302°
2026-05-03 20:35 13.80690 -71.07306 30106 ft 451 kts 302°
2026-05-03 20:35 13.82443 -71.09992 30326 ft 451 kts 302°
2026-05-03 20:35 13.84192 -71.12670 30543 ft 451 kts 302°
2026-05-03 20:36 13.85943 -71.15355 30781 ft 450 kts 302°
2026-05-03 20:36 13.87686 -71.18027 31022 ft 450 kts 302°
2026-05-03 20:36 13.89432 -71.20704 31263 ft 450 kts 302°
2026-05-03 20:36 13.91174 -71.23377 31503 ft 449 kts 302°
2026-05-03 20:37 13.92913 -71.26045 31765 ft 449 kts 302°
2026-05-03 20:37 13.94648 -71.28709 31968 ft 447 kts 302°
2026-05-03 20:37 13.96385 -71.31375 31945 ft 449 kts 302°
2026-05-03 20:38 13.99862 -71.36719 31951 ft 449 kts 302°
2026-05-03 20:38 14.03320 -71.42035 31949 ft 449 kts 302°
2026-05-03 20:39 14.06809 -71.47403 31960 ft 449 kts 302°
2026-05-03 20:39 14.10272 -71.52733 31958 ft 450 kts 302°
2026-05-03 20:40 14.13764 -71.58110 31959 ft 450 kts 302°
2026-05-03 20:40 14.17244 -71.63475 31955 ft 450 kts 302°
2026-05-03 20:41 14.20723 -71.68839 31958 ft 450 kts 302°
2026-05-03 20:41 14.24203 -71.74210 31962 ft 449 kts 302°
2026-05-03 20:42 14.27676 -71.79575 31957 ft 449 kts 302°
2026-05-03 20:42 14.31126 -71.84906 31950 ft 448 kts 303°
2026-05-03 20:43 14.34588 -71.90259 31953 ft 448 kts 302°
2026-05-03 20:43 14.38050 -71.95615 31956 ft 447 kts 303°
2026-05-03 20:44 14.41506 -72.00966 31959 ft 447 kts 302°
2026-05-03 20:44 14.44955 -72.06310 31958 ft 447 kts 302°
2026-05-03 20:45 14.48426 -72.11692 31963 ft 446 kts 302°
2026-05-03 20:45 14.51943 -72.17148 31960 ft 446 kts 302°
2026-05-03 20:46 14.55383 -72.22489 31955 ft 447 kts 302°
2026-05-03 20:46 14.58827 -72.27839 31963 ft 447 kts 302°
2026-05-03 20:47 14.62276 -72.33200 31960 ft 447 kts 302°
2026-05-03 20:47 14.65725 -72.38565 31957 ft 448 kts 302°
2026-05-03 20:48 14.69160 -72.43911 31953 ft 449 kts 302°
2026-05-03 20:48 14.72622 -72.49303 31955 ft 449 kts 302°
2026-05-03 20:49 14.76061 -72.54664 31954 ft 450 kts 302°
2026-05-03 20:49 14.79519 -72.60058 31956 ft 450 kts 302°
2026-05-03 20:50 14.82985 -72.65469 31954 ft 451 kts 302°
2026-05-03 20:50 14.86457 -72.70892 31956 ft 451 kts 302°
2026-05-03 20:51 14.89926 -72.76313 31959 ft 452 kts 303°
2026-05-03 20:51 14.93395 -72.81739 31965 ft 452 kts 303°
2026-05-03 20:52 14.96917 -72.87251 31962 ft 452 kts 303°
2026-05-03 20:52 15.00367 -72.92655 31964 ft 452 kts 303°
2026-05-03 20:53 15.03833 -72.98086 31964 ft 452 kts 303°
2026-05-03 20:53 15.07301 -73.03526 31964 ft 451 kts 303°
2026-05-03 20:54 15.10175 -73.08035 31958 ft 451 kts 303°
2026-05-03 20:54 15.15355 -73.16173 31958 ft 450 kts 303°
2026-05-03 20:55 15.18823 -73.21625 31967 ft 450 kts 303°
2026-05-03 20:55 15.22246 -73.27009 31968 ft 450 kts 303°
2026-05-03 20:56 15.25692 -73.32434 31963 ft 450 kts 303°
2026-05-03 20:56 15.29139 -73.37865 31963 ft 450 kts 303°
2026-05-03 20:57 15.32578 -73.43287 31961 ft 450 kts 303°
2026-05-03 20:57 15.36001 -73.48687 31960 ft 450 kts 302°
2026-05-03 20:58 15.39441 -73.54118 31958 ft 451 kts 302°
2026-05-03 20:58 15.42886 -73.59562 31963 ft 451 kts 302°
2026-05-03 20:59 15.46337 -73.65018 31961 ft 451 kts 302°
2026-05-03 20:59 15.49778 -73.70463 31968 ft 451 kts 302°
2026-05-03 21:00 15.52642 -73.74996 31965 ft 451 kts 302°
2026-05-03 21:00 15.56669 -73.81378 31968 ft 452 kts 302°
2026-05-03 21:01 15.60115 -73.86842 31968 ft 452 kts 302°
2026-05-03 21:01 15.63559 -73.92308 31963 ft 452 kts 302°
2026-05-03 21:02 15.67001 -73.97774 31966 ft 452 kts 302°
2026-05-03 21:02 15.70565 -74.03154 31965 ft 452 kts 306°
2026-05-03 21:03 15.74397 -74.08303 31966 ft 452 kts 307°
2026-05-03 21:03 15.78281 -74.13454 31966 ft 452 kts 307°
2026-05-03 21:04 15.82141 -74.18639 31966 ft 452 kts 307°
2026-05-03 21:04 15.85967 -74.23825 31966 ft 452 kts 306°
2026-05-03 21:05 15.89789 -74.29026 31970 ft 452 kts 306°
2026-05-03 21:05 15.93581 -74.34188 31974 ft 452 kts 306°
2026-05-03 21:06 15.97401 -74.39391 31968 ft 452 kts 306°
2026-05-03 21:06 16.01214 -74.44588 31969 ft 452 kts 306°
2026-05-03 21:07 16.05027 -74.49787 31971 ft 452 kts 306°
2026-05-03 21:07 16.08820 -74.54964 31970 ft 452 kts 306°
2026-05-03 21:08 16.12643 -74.60184 31969 ft 452 kts 306°
2026-05-03 21:08 16.16455 -74.65393 31970 ft 452 kts 306°
2026-05-03 21:09 16.20272 -74.70613 31965 ft 452 kts 306°
2026-05-03 21:09 16.24077 -74.75820 31971 ft 451 kts 306°
2026-05-03 21:10 16.27880 -74.81028 31970 ft 451 kts 306°
2026-05-03 21:10 16.31680 -74.86237 31971 ft 451 kts 306°
2026-05-03 21:11 16.35450 -74.91408 31970 ft 450 kts 306°
2026-05-03 21:11 16.39242 -74.96611 31967 ft 450 kts 306°
2026-05-03 21:12 16.43023 -75.01806 31970 ft 450 kts 306°
2026-05-03 21:12 16.46801 -75.06999 31969 ft 449 kts 306°
2026-05-03 21:13 16.50579 -75.12194 31968 ft 449 kts 306°
2026-05-03 21:13 16.54351 -75.17388 31973 ft 448 kts 306°
2026-05-03 21:14 16.58099 -75.22549 31973 ft 448 kts 306°
2026-05-03 21:14 16.61858 -75.27731 31973 ft 448 kts 306°
2026-05-03 21:15 16.65627 -75.32931 31974 ft 448 kts 306°
2026-05-03 21:15 16.69467 -75.38232 31973 ft 448 kts 306°
2026-05-03 21:16 16.73232 -75.43434 31973 ft 448 kts 306°
2026-05-03 21:16 16.76966 -75.48598 31977 ft 448 kts 306°
2026-05-03 21:17 16.80116 -75.52955 31975 ft 448 kts 306°
2026-05-03 21:17 16.84486 -75.59005 31974 ft 448 kts 306°
2026-05-03 21:18 16.88244 -75.64212 31976 ft 449 kts 306°
2026-05-03 21:18 16.92001 -75.69422 31974 ft 449 kts 306°
2026-05-03 21:19 16.95760 -75.74638 31977 ft 449 kts 305°
2026-05-03 21:19 16.99502 -75.79837 31976 ft 449 kts 306°
2026-05-03 21:20 17.03269 -75.85072 31978 ft 450 kts 305°
2026-05-03 21:20 17.07031 -75.90305 31976 ft 450 kts 306°
2026-05-03 21:21 17.10801 -75.95552 31980 ft 451 kts 305°
2026-05-03 21:21 17.14544 -76.00767 31976 ft 451 kts 305°
2026-05-03 21:22 17.18315 -76.06025 31975 ft 451 kts 305°
2026-05-03 21:22 17.21454 -76.10404 31975 ft 451 kts 305°
2026-05-03 21:23 17.25228 -76.15672 31974 ft 452 kts 305°
2026-05-03 21:23 17.28996 -76.20936 31968 ft 451 kts 305°
2026-05-03 21:24 17.32743 -76.26175 31972 ft 451 kts 305°
2026-05-03 21:24 17.36504 -76.31438 31966 ft 451 kts 305°
2026-05-03 21:25 17.40270 -76.36712 31964 ft 451 kts 305°
2026-05-03 21:25 17.44050 -76.42010 31964 ft 451 kts 305°
2026-05-03 21:26 17.47812 -76.47286 31961 ft 451 kts 305°
2026-05-03 21:26 17.51573 -76.52565 31959 ft 451 kts 305°
2026-05-03 21:27 17.55325 -76.57836 31958 ft 451 kts 305°
2026-05-03 21:27 17.59103 -76.63148 31955 ft 451 kts 305°
2026-05-03 21:28 17.62832 -76.68394 31955 ft 451 kts 305°
2026-05-03 21:28 17.66579 -76.73670 31959 ft 451 kts 305°
2026-05-03 21:29 17.70327 -76.78952 31960 ft 450 kts 305°
2026-05-03 21:29 17.74074 -76.84238 31961 ft 450 kts 305°
2026-05-03 21:30 17.77809 -76.89509 31961 ft 450 kts 305°
2026-05-03 21:30 17.81544 -76.94784 31961 ft 450 kts 305°
2026-05-03 21:31 17.85277 -77.00063 31965 ft 450 kts 305°
2026-05-03 21:31 17.88993 -77.05321 31959 ft 450 kts 305°
2026-05-03 21:32 17.92723 -77.10602 31968 ft 449 kts 305°
2026-05-03 21:32 17.96450 -77.15883 31968 ft 449 kts 305°
2026-05-03 21:33 18.00167 -77.21156 31970 ft 449 kts 304°
2026-05-03 21:33 18.03889 -77.26440 31988 ft 449 kts 305°
2026-05-03 21:34 18.07625 -77.31745 31992 ft 448 kts 304°
2026-05-03 21:34 18.11334 -77.37020 31995 ft 448 kts 305°
2026-05-03 21:35 18.15041 -77.42294 31988 ft 448 kts 304°
2026-05-03 21:35 18.18738 -77.47560 32000 ft 447 kts 304°
2026-05-03 21:36 18.22431 -77.52822 31989 ft 447 kts 305°
2026-05-03 21:36 18.26148 -77.58124 31997 ft 447 kts 304°
2026-05-03 21:37 18.29827 -77.63376 31990 ft 448 kts 305°
2026-05-03 21:37 18.33545 -77.68688 31982 ft 448 kts 305°
2026-05-03 21:38 18.37248 -77.73984 31975 ft 449 kts 305°
2026-05-03 21:38 18.40950 -77.79282 31968 ft 449 kts 305°
2026-05-03 21:39 18.44669 -77.84610 31968 ft 450 kts 305°
2026-05-03 21:39 18.48373 -77.89920 31966 ft 450 kts 305°
2026-05-03 21:40 18.52289 -77.95075 31973 ft 451 kts 310°
2026-05-03 21:40 18.56594 -77.99891 31968 ft 451 kts 312°
2026-05-03 21:41 18.60932 -78.04677 31970 ft 450 kts 312°
2026-05-03 21:41 18.65221 -78.09478 31972 ft 449 kts 311°
2026-05-03 21:42 18.68796 -78.13516 31978 ft 449 kts 311°
2026-05-03 21:42 18.73770 -78.19154 31985 ft 448 kts 311°
2026-05-03 21:43 18.77305 -78.23163 31982 ft 448 kts 311°
2026-05-03 21:43 18.81550 -78.27980 31984 ft 447 kts 311°
2026-05-03 21:44 18.85817 -78.32825 31985 ft 447 kts 311°
2026-05-03 21:44 18.90054 -78.37638 31987 ft 447 kts 311°
2026-05-03 21:45 18.94287 -78.42452 31991 ft 447 kts 311°
2026-05-03 21:45 18.98524 -78.47274 31992 ft 447 kts 311°
2026-05-03 21:46 19.02750 -78.52087 31995 ft 447 kts 311°
2026-05-03 21:46 19.06991 -78.56921 31995 ft 447 kts 311°
2026-05-03 21:47 19.11226 -78.61753 31994 ft 448 kts 311°
2026-05-03 21:47 19.15473 -78.66602 31996 ft 448 kts 311°
2026-05-03 21:48 19.19718 -78.71453 31994 ft 448 kts 311°
2026-05-03 21:48 19.23950 -78.76294 31994 ft 448 kts 311°
2026-05-03 21:49 19.28186 -78.81142 31996 ft 448 kts 311°
2026-05-03 21:49 19.32423 -78.85996 31999 ft 450 kts 311°
2026-05-03 21:50 19.36700 -78.90902 31998 ft 455 kts 311°
2026-05-03 21:50 19.41056 -78.95899 31997 ft 459 kts 311°
2026-05-03 21:51 19.45374 -79.00850 31993 ft 461 kts 311°
2026-05-03 21:51 19.49761 -79.05877 31993 ft 461 kts 311°
2026-05-03 21:52 19.54118 -79.10875 31990 ft 461 kts 311°
2026-05-03 21:52 19.58438 -79.15835 31992 ft 459 kts 311°
2026-05-03 21:53 19.62762 -79.20807 31992 ft 457 kts 310°
2026-05-03 21:53 19.67070 -79.25764 31992 ft 455 kts 310°